Regional Weather Roundup
Issued by NWS

Home | Current Version | Previous Version | Graphics & Text | Print | Product List | Glossary On
Versions: 1 2 3 4 5 6 7 8 9 10 11 12 13 14 15 16 17 18 19 20 21 22 23 24 25 26 27 28 29 30 31 32 33 34 35 36 37 38 39 40 41 42 43 44 45 46 47 48 49 50
000
ASUS43 KTOP 040159
RWRKS

WEATHER ROUNDUP FOR KANSAS
NATIONAL WEATHER SERVICE GOODLAND KS
900 PM CDT FRI JUL 03 2015

NOTE:  "FAIR" INDICATES FEW OR NO CLOUDS BELOW 12,000 FEET WITH NO
SIGNIFICANT WEATHER AND/OR OBSTRUCTIONS TO VISIBILITY.

KSZ001>006-013>018-027>032-041>047-040300-
NORTHWEST KANSAS

CITY           SKY/WX    TMP DP  RH WIND       PRES   REMARKS
GOODLAND       MOCLDY    77  58  51 SE10      30.01R
HAYS           CLEAR     77  57  50 E8        29.96S
HILL CITY      CLEAR     77  57  50 E6        29.98R
RUSSELL        CLEAR     74  63  68 E7        29.95R
$$

KSZ061>065-074>080-084>089-040300-
SOUTHWEST KANSAS

CITY           SKY/WX    TMP DP  RH WIND       PRES   REMARKS
DODGE CITY     CLEAR     77  57  50 SE8       29.99R
ELKHART          N/A     73  59  61 SE13        N/A
GARDEN CITY    CLEAR     74  64  71 SE6       29.99R
GREAT BEND     CLEAR     75  63  64 SE7       29.96S
LIBERAL        CLEAR     75  63  64 S7        30.01R
$$

KSZ066>073-081>083-090>101-040300-
SOUTHEAST KANSAS

CITY           SKY/WX    TMP DP  RH WIND       PRES   REMARKS
CHANUTE        PTCLDY    75  67  76 NE5       29.92S
COFFEYVILLE    PTCLDY    76  69  79 N5        29.90R
HUTCHINSON     PTCLDY    76  62  62 NE3       29.95R
MEDICINE LODGE   N/A     78  62  57 E8        29.93R
NEWTON         CLEAR     73  61  64 CALM      29.97S
PARSONS        CLEAR     76  69  79 CALM      29.93R
WICHITA INTL   PTCLDY    77  63  61 E7        29.93S
WICHITA JABRA  CLEAR     72  64  76 NE7       29.94R
WINFIELD       CLEAR     79  64  60 NE7       29.93S
$$

KSZ007>012-019>026-033>040-048>060-102>105-040300-
NORTHEAST KANSAS

CITY           SKY/WX    TMP DP  RH WIND       PRES   REMARKS
CONCORDIA      CLEAR     73  63  70 E5        29.96R
EMPORIA        CLEAR     72  63  73 NE5       29.94S
LAWRENCE       CLEAR     69  62  78 NE5       29.94R
MANHATTAN      CLEAR     73  60  63 NE3       29.94S
OLATHE IND     CLEAR     69  60  73 N3        29.95R
OLATHE EXE     CLEAR     72  56  57 E3        29.93S
SALINA         CLEAR     80  61  52 E8        29.95R
TOPEKA BILLARD CLEAR     71  63  75 N3        29.94S
TOPEKA FORBES    N/A    N/A N/A N/A MISG      29.94S
$$



USA.gov is the U.S. government's official web portal to all federal, state and local government web resources and services.